Location: Asheville, NC
(35.6000°N, 82.5500°W)
Time: 17:29:51

STARS - Pass Details

Date: 15 March 2018
Orbit: 625 x 641 km, 98.3° (Epoch: 19 March)

Event Time Altitude Azimuth Distance (km) Brightness Sun altitude
Rises 05:45:30 0° 120° (ESE) 2,933 ? -24.1°
Reaches altitude 10° 05:48:47 10° 93° (E) 2,028 ? -23.4°
Maximum altitude 05:50:51 13° 65° (ENE) 1,821 ? -23.0°
Drops below altitude 10° 05:52:55 10° 37° (NE) 2,032 ? -22.6°
Sets 05:56:12 0° 11° (N) 2,944 ? -22.0°
